Location: 5810 Zion Rd, Cleves, OH 45002, USA
(39.1922°N, 84.7113°W)
Time: 03:47:20
(UTC-05:00)

S-56A Canister/Altair - All Passes

Search period start: 12 December 2019 00:00
Search period end: 22 December 2019 00:00
Orbit: 633 x 2499 km, 38.9° (Epoch: 11 December)

Date Brightness Start Highest point End Pass type
(mag) Time Alt. Az. Time Alt. Az. Time Alt. Az.
12 Dec - 07:38:55 10° S 07:48:17 27° SE 07:59:22 10° E daylight
12 Dec - 09:39:58 10° SW 09:52:53 62° SSE 10:07:41 10° ENE daylight
12 Dec - 11:44:55 10° WSW 11:59:42 87° S 12:14:09 10° E daylight
12 Dec - 13:51:41 10° W 14:07:02 83° SSW 14:19:41 10° ESE daylight
12 Dec - 15:59:09 10° WNW 16:12:51 50° SW 16:23:08 10° SE daylight
12 Dec - 18:09:35 10° W 18:16:04 16° SW 18:21:34 10° SSW visible
13 Dec - 07:06:59 10° S 07:15:15 22° SE 07:25:02 10° E visible
13 Dec - 09:07:10 10° SW 09:19:25 57° SSE 09:34:03 10° ENE daylight
13 Dec - 11:11:36 10° WSW 11:25:57 85° S 11:40:48 10° E daylight
13 Dec - 13:18:04 10° W 13:33:23 85° S 13:46:40 10° ESE daylight
13 Dec - 15:25:18 10° WNW 15:39:36 56° SSW 15:50:35 10° SE daylight
13 Dec - 17:34:47 10° W 17:43:15 20° SW 17:50:15 10° S visible
14 Dec - 06:35:22 10° SSE 06:42:19 18° SE 06:50:26 10° E visible
14 Dec - 08:34:28 10° SW 08:46:01 52° SE 09:00:19 10° ENE daylight
14 Dec - 10:38:23 10° WSW 10:52:14 83° SSE 11:07:20 10° E daylight
14 Dec - 12:44:31 10° W 12:59:40 87° S 13:13:32 10° ESE daylight
14 Dec - 14:51:31 10° WNW 15:06:14 61° SSW 15:17:57 10° SE daylight
14 Dec - 17:00:19 10° W 17:10:22 24° SW 17:18:31 10° S daylight
15 Dec - 06:04:15 10° SSE 06:09:27 14° ESE 06:15:22 10° E visible
15 Dec - 08:01:54 10° SSW 08:12:43 47° SE 08:26:30 10° ENE daylight
15 Dec - 10:05:18 10° WSW 10:18:32 81° SSE 10:33:49 10° E daylight
15 Dec - 12:11:04 10° W 12:25:55 88° S 12:40:18 10° E daylight
15 Dec - 14:17:49 10° WNW 14:32:47 65° SSW 14:45:11 10° SE daylight
15 Dec - 16:26:03 10° W 16:37:22 29° SW 16:46:32 10° S daylight
16 Dec - 05:34:41 10° SE 05:36:40 11° ESE 05:38:47 10° ESE visible
16 Dec - 07:29:28 10° SSW 07:39:31 42° SE 07:52:36 10° ENE daylight
16 Dec - 09:32:19 10° WSW 09:44:55 78° SSE 10:00:12 10° E daylight
16 Dec - 11:37:42 10° W 11:52:10 89° S 12:06:58 10° E daylight
16 Dec - 13:44:11 10° WNW 13:59:14 70° SSW 14:12:18 10° SE daylight
16 Dec - 15:51:57 10° W 16:04:17 34° SW 16:14:22 10° SSE daylight
17 Dec - 06:57:10 10° SSW 07:06:26 37° SE 07:18:37 10° ENE visible
17 Dec - 08:59:26 10° WSW 09:11:22 74° SSE 09:26:30 10° ENE daylight
17 Dec - 11:04:26 10° W 11:18:25 89° S 11:33:32 10° E daylight
17 Dec - 13:10:39 10° WNW 13:25:38 73° SSW 13:39:17 10° ESE daylight
17 Dec - 15:18:00 10° WNW 15:31:06 38° SW 15:42:02 10° SSE daylight
18 Dec - 06:25:01 10° SSW 06:33:26 32° SE 06:44:33 10° E visible
18 Dec - 08:26:40 10° SW 08:37:54 70° SSE 08:52:44 10° ENE daylight
18 Dec - 10:31:16 10° W 10:44:40 89° S 11:00:00 10° E daylight
18 Dec - 12:37:12 10° WNW 12:51:58 77° SSW 13:06:10 10° ESE daylight
18 Dec - 14:44:09 10° WNW 14:57:50 43° SW 15:09:32 10° SSE daylight
18 Dec - 16:56:31 10° WSW 17:01:18 12° WSW 17:05:45 10° SW daylight
19 Dec - 05:53:01 10° S 06:00:33 27° SE 06:10:22 10° E visible
19 Dec - 07:53:59 10° SW 08:04:32 65° SSE 08:18:56 10° ENE daylight
19 Dec - 09:58:11 10° W 10:10:58 88° S 10:26:22 10° E daylight
19 Dec - 12:03:50 10° W 12:18:17 80° SSW 12:32:55 10° ESE daylight
19 Dec - 14:10:26 10° WNW 14:24:27 48° SW 14:36:53 10° SSE daylight
19 Dec - 16:20:56 10° W 16:28:21 16° SW 16:35:05 10° SSW daylight
20 Dec - 05:21:16 10° S 05:27:46 22° SE 05:36:03 10° E visible
20 Dec - 07:21:25 10° SW 07:31:16 60° SSE 07:45:05 10° ENE visible
20 Dec - 09:25:13 10° W 09:37:20 87° S 09:52:40 10° E daylight
20 Dec - 11:30:34 10° W 11:44:34 82° SSW 11:59:35 10° ESE daylight
20 Dec - 13:36:49 10° WNW 13:51:01 52° SW 14:04:08 10° SE daylight
20 Dec - 15:46:07 10° W 15:55:20 20° SW 16:03:38 10° SSW daylight
21 Dec - 04:49:47 10° SSE 04:55:03 17° SE 05:01:30 10° E visible
21 Dec - 06:48:57 10° SW 06:58:07 54° SSE 07:11:13 10° ENE visible
21 Dec - 08:52:19 10° WSW 09:03:46 86° S 09:18:55 10° E daylight
21 Dec - 10:57:23 10° W 11:10:52 85° SSW 11:26:07 10° ESE daylight
21 Dec - 13:03:20 10° WNW 13:17:30 57° SSW 13:31:13 10° SE daylight
21 Dec - 15:11:44 10° W 15:22:13 23° SW 15:31:46 10° S daylight
